Location: Blairvadach
(56.2780°N, 6.9720°W)
Time: 12:43:29
(UTC+00:00)

Envisat - Pass Details

Date: 14 November 2019
Orbit: 764 x 766 km, 98.1° (Epoch: 16 December)

Event Time Altitude Azimuth Distance (km) Brightness Sun altitude
Rises 17:05:07 0° 133° (SE) 3,229 6.0 -6.2°
Reaches altitude 10° 17:07:34 10° 125° (SE) 2,306 5.2 -6.5°
Maximum altitude 17:12:10 36° 60° (ENE) 1,209 3.6 -7.1°
Drops below altitude 10° 17:16:47 10° 356° (N) 2,319 5.3 -7.7°
Sets 17:19:15 0° 348° (NNW) 3,249 6.2 -8.0°
